Weather History for Andover, NJ

Change the Weather History Date:

Saturday, September 28, 2013

  Actual Average (KFWN) Record (KFWN)
Temperature  
Mean Temperature 60 °F -  
Max Temperature 73 °F 69 °F 83 °F (1963)
Min Temperature 50 °F 44 °F 28 °F (1957)
Degree Days  
Heating Degree Days 4    
Growing Degree Days 10 (Base 50)    
Moisture  
Dew Point 50 °F    
Average Humidity 76    
Maximum Humidity 96    
Minimum Humidity 44    
Precipitation  
Precipitation 0.00 in - - ()
Sea Level Pressure  
Sea Level Pressure 30.29 in    
Wind  
Wind Speed 2 mph (NE)    
Max Wind Speed 7 mph    
Max Gust Speed -    
Averages and records for this station are not official NWS values.
T = Trace of Precipitation, MM = Missing Value Source: NWS Daily Summary

Daily Weather History Graph

Daily Weather History Graph

Search for Another Location

Airport:

Trip Planner

Search our weather history database for the weather conditions in past years. The results will help you decide how hot, cold, wet, or windy it might be!

Date:

Astronomy

Sep. 28, 2013 Rise Set
Actual Time 6:52 AM EDT 6:45 PM EDT
Civil Twilight 6:25 AM EDT 7:12 PM EDT
Nautical Twilight 5:53 AM EDT 7:44 PM EDT
Astronomical Twilight 5:20 AM EDT 8:17 PM EDT
Moon 12:35 AM EDT (9/28) 3:05 PM EDT (9/28)
Length of Visible Light 12h 47m
Length of Day
11h 52m
Last Quarter, 36% of the Moon is Illuminated
Sep 28
Last Quarter
Oct 4
New
Oct 11
First Quarter
Oct 18
Full
Oct 26
Last Quarter

Hourly Weather History & Observations

Time (EDT) Temp. Dew Point Humidity Pressure Visibility Wind Dir Wind Speed Gust Speed Precip Events Conditions
12:54 AM 57.0 °F 52.0 °F 83% 30.28 in - NE 3.5 mph - N/A   Unknown
1:54 AM 55.9 °F 52.0 °F 87% 30.29 in - NE 3.5 mph - N/A   Unknown
2:54 AM 55.9 °F 51.1 °F 84% 30.28 in - NE 3.5 mph - N/A   Unknown
3:54 AM 55.0 °F 51.1 °F 86% 30.28 in - Calm Calm - N/A   Unknown
4:54 AM 52.0 °F 48.9 °F 89% 30.29 in - Calm Calm - N/A   Unknown
5:54 AM 50.0 °F 48.0 °F 93% 30.31 in - Calm Calm - N/A   Unknown
6:54 AM 50.0 °F 48.0 °F 93% 30.33 in - North 3.5 mph - N/A   Unknown
7:54 AM 51.1 °F 50.0 °F 96% 30.35 in - Calm Calm - N/A   Unknown
8:54 AM 54.0 °F 52.0 °F 93% 30.35 in - Calm Calm - N/A   Unknown
9:54 AM 60.1 °F 51.1 °F 72% 30.35 in - Calm Calm - N/A   Unknown
10:54 AM 64.0 °F 50.0 °F 60% 30.35 in - NE 6.9 mph - N/A   Unknown
11:54 AM 66.9 °F 50.0 °F 54% 30.33 in - Variable 3.5 mph - N/A   Unknown
12:54 PM 69.1 °F 50.0 °F 51% 30.31 in - NNW 3.5 mph - N/A   Unknown
1:54 PM 69.1 °F 48.9 °F 49% 30.29 in - SE 5.8 mph - N/A   Unknown
2:54 PM 69.1 °F 50.0 °F 51% 30.27 in - Calm Calm - N/A   Unknown
3:54 PM 71.1 °F 48.0 °F 44% 30.26 in - Calm Calm - N/A   Unknown
4:54 PM 70.0 °F 46.9 °F 44% 30.26 in - Variable 3.5 mph - N/A   Unknown
5:54 PM 68.0 °F 51.1 °F 55% 30.26 in - Calm Calm - N/A   Unknown
6:54 PM 60.1 °F 54.0 °F 80% 30.27 in - Calm Calm - N/A   Unknown
7:54 PM 55.9 °F 52.0 °F 87% 30.27 in - Calm Calm - N/A   Unknown
8:54 PM 53.1 °F 51.1 °F 93% 30.28 in - Calm Calm - N/A   Unknown
9:54 PM 52.0 °F 48.9 °F 89% 30.28 in - Calm Calm - N/A   Unknown
10:54 PM 51.1 °F 48.9 °F 92% 30.27 in - Calm Calm - N/A   Unknown
11:54 PM 50.0 °F 48.0 °F 93% 30.26 in - Calm Calm - N/A   Unknown